Welcome to the New NWS' Forecast!
Most changes are behind the scenes, but click here for differences you might notice.
Latest weather observations around

Charleston, Charleston Air Force Base (KCHS)

Using English Units (Switch to International System of Units)
Date/ Time (EST) Wind (mph) Vis. (mi) Weather Sky Cond. Temp (°F) Rel. Humidity Wind Chill (°F) Heat Index (°F) Pressure Precip. (in)
Air Dwpt 6 hour Altimeter (inHg) Sea level (inHg) 1 hr 3 hr 6 hr
Max Min
Jan 18 00:56 NNW 21 10 Cloudy and Windy BKN026 OVC034 32 23     69% 20   30.29 30.28     0
Jan 17 23:56 NNW 15 10 Cloudy OVC022 33 24     69% 23   30.28 30.28      
Jan 17 22:56   10 Cloudy BKN025 OVC046 34 24     67%     30.27 30.27      
Jan 17 22:12 NW 18 10 Cloudy BKN035 OVC043 36 25     64% 26   30.26        
Jan 17 21:56   10 Cloudy SCT023 BKN028 OVC033 36 26     67%     30.26 30.26   0  
Jan 17 20:56 NW 11 10 Cloudy SCT020 BKN025 OVC043 37 30     76% 29   30.23 30.23 0    
Jan 17 20:15 WNW 15 10 Light Rain BKN020 OVC042 37 31     78% 28   30.23   0    
Jan 17 19:56 WNW 14 10 Mostly Cloudy SCT022 BKN041 38 30     73% 30   30.22 30.22      
Jan 17 19:20 WNW 11 10 Mostly Cloudy SCT022 SCT029 BKN037 38 30     73% 30   30.21        
Jan 17 18:56 NW 15 10 Cloudy SCT021 BKN029 OVC031 39 31     72% 31   30.21 30.21     0
Jan 17 17:56 WNW 16 10 Cloudy BKN017 BKN024 OVC032 39 33     79% 30   30.19 30.19      
Jan 17 17:41   10 Cloudy BKN021 BKN026 OVC032 40 34     79%     30.18        
Jan 17 16:56 NW 13 10 Cloudy OVC010 41 36     82% 34   30.17 30.17      
Jan 17 15:56 NW 11 10 Cloudy BKN012 BKN043 OVC055 44 38     79% 38   30.15 30.15 0 0  
Jan 17 15:15 WNW 13 10 Cloudy OVC014 44 38     79% 38   30.15   0    
Jan 17 14:56   7 Light Rain BKN019 OVC047 45 38     76%     30.15 30.15 0    
Jan 17 13:56 WNW 13 10 Cloudy OVC060 47 36     65% 41   30.16 30.15      
Jan 17 12:56 NW 11 10 Cloudy OVC070 49 36     61% 44   30.18 30.17      
Jan 17 10:56 WNW 10 10 Mostly Cloudy BKN080 52 39     61%     30.24 30.23      
Jan 17 09:56 W 7 10 Partly Cloudy SCT070 SCT250 49 39     69% 46   30.25 30.24      
Jan 17 08:56 Calm 10 Mostly Clear FEW070 FEW250 43 39     86%     30.22 30.22      
Jan 17 07:56 Calm 8 Mostly Clear FEW070 FEW250 35 33     92%     30.23 30.23      
Jan 17 06:56 NNW 3 8 Mostly Clear FEW060 FEW250 34 32     92% 31   30.23 30.23      
Jan 17 05:56 Calm 8 Mostly Clear FEW060 FEW250 35 34     96%     30.23 30.23      
Jan 17 04:56 Calm 8 Partly Cloudy SCT060 35 34     96%     30.24 30.24      
Jan 17 03:56 NE 3 8 Mostly Clear FEW250 35 33     92% 32   30.26 30.25      
Jan 17 02:56 NNE 3 10 Mostly Cloudy BKN250 37 34     89% 35   30.26 30.26      
Jan 17 01:56 Calm 10 Mostly Cloudy BKN250 38 35     89%     30.28 30.27      
Jan 17 00:56 Calm 10 Mostly Cloudy BKN250 39 34     82%     30.29 30.28      
Jan 16 23:56 NNW 3 10 Mostly Cloudy BKN250 37 33     85% 35   30.3 30.3      
Jan 16 22:56 Calm 10 Partly Cloudy SCT250 40 35     83%     30.32 30.31      
Jan 16 21:56 Calm 10 Mostly Cloudy BKN250 42 35     76%     30.34 30.34      
Jan 16 20:56 Calm 10 Partly Cloudy SCT250 42 35     76%     30.35 30.35      
Jan 16 19:56 SSE 3 10 Clear CLR 43 34     70% 41   30.36 30.36      
Jan 16 18:56 SSE 5 10 Clear CLR 45 34     65% 43   30.37 30.37      
Jan 16 17:56 SSE 7 10 Mostly Cloudy BKN250 46 34     63% 42   30.35 30.35      
Jan 16 16:56 SSE 7 10 Mostly Cloudy BKN250 52 33     48%     30.36 30.35      
Jan 16 15:56 SSE 8 10 Mostly Cloudy BKN250 54 32     43%     30.36 30.35      
Jan 16 14:56 S 9 10 Mostly Cloudy BKN250 58 28     32%     30.36 30.35      
Jan 16 13:56 SSE 5 10 Mostly Cloudy BKN250 57 26     30%     30.37 30.37      
Jan 16 09:56 NNE 3 10 Clear CLR 44 22     41% 43   30.49 30.49      
Jan 16 08:56 NE 6 10 Clear CLR 37 24     59% 32   30.48 30.48      
Jan 16 07:56 N 3 10 Clear CLR 31 20     63% 28   30.47 30.47      
Jan 16 06:56 N 5 10 Clear CLR 29 18     63% 24   30.47 30.47      
Jan 16 05:56 Calm 10 Clear CLR 30 18     60%     30.46 30.46      
Jan 16 04:56 NNE 5 10 Clear CLR 27 19     72% 21   30.45 30.45      
Jan 16 03:56 N 5 10 Clear CLR 27 20     75% 21   30.44 30.44      
Jan 16 02:56 NNW 5 10 Clear CLR 29 21     72% 24   30.45 30.45      
Jan 16 01:56 Calm 10 Clear CLR 28 21     75%     30.44 30.44      
Jan 16 00:56 NNW 5 10 Clear CLR 30 21     69% 25   30.45 30.45      
Jan 15 23:56 N 3 10 Clear CLR 32 22     66% 29   30.45 30.45      
Jan 15 22:56 NE 3 10 Clear CLR 34 21     59% 31   30.46 30.46      
Jan 15 21:56 NE 3 10 Clear CLR 34 22     61% 31   30.48 30.47      
Jan 15 18:56 NNW 3 10 Clear CLR 39 19     44% 37   30.46 30.45      
Jan 15 17:56 N 8 10 Clear CLR 39 18     42% 33   30.44 30.44      
Jan 15 16:56 NNE 11 10 Clear CLR 45 18     34% 39   30.42 30.42      
Jan 15 13:56 N 13 10 Clear CLR 46 17     31% 40   30.42 30.42      
Jan 15 11:56 N 14 10 Clear CLR 42 16     34% 35   30.48 30.48      
Jan 15 10:56 N 11 10 Clear CLR 40 16     37% 33   30.52 30.52      
Jan 15 08:56 NNE 9 10 Clear CLR 32 13     45% 24   30.51 30.51      
Jan 15 07:56 N 11 10 Clear CLR 29 13     51% 19   30.5 30.5      
Jan 15 06:56 NNE 8 10 Mostly Clear FEW120 28 14     55% 20   30.46 30.46      
Jan 15 05:56 N 8 10 Partly Cloudy FEW150 SCT180 29 14     53% 21   30.47 30.47      
Jan 15 02:56 NNE 8 10 Mostly Cloudy BKN200 31 15     51% 23   30.48 30.48      
Jun 11 23:56 Calm 10 Mostly Cloudy BKN200 72 66     82%   73 30.19 30.19      
Jun 11 19:56 SSE 6 10 Mostly Cloudy FEW150 BKN220 77 63     62%   77 30.18 30.18      
Jun 10 22:56 SSE 6 10 Partly Cloudy SCT250 74 69     85%   75 30.17 30.17      
Jun 10 07:56 Calm 10 Mostly Clear FEW080 73 67     81%   74 30.1 30.09      
Jun 09 14:56 S 10 10 Mostly Cloudy BKN045 BKN250 84 65     53%   86 29.96 29.96      
Jun 09 08:56 SSE 5 10 Mostly Clear FEW250 71 62     73%   71 29.99 29.99      
Jun 08 21:56 E 6 10 Clear CLR 68 60     76%     29.88 29.88      
Notice The following observation data may not be complete
Jun 08 20:56   10 Clear CLR          %              
Jun 08 16:56 NNE 10 10 Partly Cloudy SCT040 76 56     50%   76 29.81 29.81      
Jun 08 08:15 N 14 2 Heavy Rain and Fog/Mist SCT010 BKN015 OVC035 61 59     93%     29.83   0    
Jun 07 18:56   4 Rain and Fog/Mist SCT011 SCT020 OVC050 66 63     90%     29.8 29.8 0    
Jun 07 14:56 NNE 14 10 Cloudy BKN010 BKN015 OVC025 70 67     90%     29.79 29.79 0    
Notice The following observation data may not be complete
Jun 07 14:33   10 Cloudy BKN010 BKN015 OVC020          %         0    
Jun 07 10:37 N 6 1.5 Heavy Rain and Fog/Mist FEW007 BKN025 OVC065 70 68     93%     29.79   0    
Jun 06 02:56 SW 9 10 Mostly Cloudy FEW050 BKN120 73 70     90%   74 29.78 29.78 0    
Jun 05 21:56 WSW 9 8 Thunderstorms and Rain SCT030 BKN045 OVC070 73 70     90%   74 29.81 29.81 0    
Jun 05 16:56   10 Thunderstorms and Rain SCT030 BKN060 BKN090 76 72     88%   77 29.78 29.78 0 0  
Jun 05 16:04 W 7 10 Mostly Cloudy SCT030 BKN045 BKN250 79 72     79%   82 29.75   0